Location: Le Rocchette
(44.3500°N, 7.8333°E)
Time: 22:03:52
(UTC+00:00)

Meteor 1-31 Rocket - Pass Details

Date: 17 November 2019
Orbit: 522 x 547 km, 97.6° (Epoch: 10 December)

Event Time Altitude Azimuth Distance (km) Brightness Sun altitude
Rises 03:55:24 0° 16° (NNE) 2,677 6.5 -26.9°
Reaches altitude 10° 03:57:32 10° 19° (NNE) 1,786 5.6 -26.5°
Enters shadow 03:59:32 28° 30° (NNE) 1,011 4.3 -26.2°
